Regional Weather Roundup
Issued by NWS

Home | Current Version | Previous Version | Text Only | Print | Product List | Glossary On
Versions: 1 2 3 4 5 6 7 8 9 10 11 12 13 14 15 16 17 18 19 20 21 22 23 24 25 26 27 28 29 30 31 32 33 34 35 36 37 38 39 40 41 42 43 44 45 46 47 48 49 50
000
ASUS45 KSLC 040310
RWRUT
UTAH REGIONAL WEATHER ROUNDUP
NATIONAL WEATHER SERVICE SALT LAKE CITY UT
900 PM MDT MON AUG 03 2015

UTZ001>011-023>025-040400-

NORTHERN UTAH

CITY           SKY/WX    TMP DP  RH WIND       PRES   REMARKS
BRIGHAM CITY   CLOUDY    65  59  80 CALM      30.10S
HILL AFB       MOCLDY    62  62  99 E3        30.11R
LOGAN          MOCLDY    62  58  86 W6        30.09F
OGDEN          MOCLDY    65  60  84 SE5       30.10R
PROVO AIRPORT  MOCLDY    66  54  63 CALM      30.11S
SALT LAKE CITY MOCLDY    68  58  70 SE5       30.08R
VERNAL         MOCLDY    67  49  52 W7        30.07R
WENDOVER       CLOUDY    75  46  35 E7        30.03S
HEBER CITY     MOCLDY    59  52  77 CALM      30.16R
WEST JORDAN    CLEAR     66  54  63 CALM      30.10S

$$

UTZ012>022-026-027-040400-

SOUTHERN/CENTRAL UTAH

CITY           SKY/WX    TMP DP  RH WIND       PRES   REMARKS
BLANDING       MOCLDY    72  47  40 NE6       30.20R
BRYCE CANYON   PTCLDY    65  38  36 W9        30.25R
CEDAR CITY     PTCLDY    76  34  21 SW9       30.08R
DELTA          PTCLDY    70  55  60 NE5       30.08R
HANKSVILLE     CLOUDY    72  54  53 N20G30    30.05R
MILFORD        PTCLDY    77  49  37 N21G28    30.07
MOAB/CYNLANDS  CLEAR     72  59  63 W9        30.01R
PRICE          PTCLDY    66  48  52 N12       30.14R
ST GEORGE      MOCLDY    97  37  12 SW10      29.86S HX  92

$$

REGIONAL REPORTS     COLORADO/ARIZONA

CITY           SKY/WX    TMP DP  RH WIND       PRES   REMARKS
CRAIG, CO      CLOUDY    63  56  78 NE7       30.14S
GRAND JUNCTION MOCLDY    77  48  35 CALM      30.03R
RIFLE          MOCLDY    68  55  63 E9        30.09R
MONTROSE       CLOUDY    74  50  42 SE6       30.14S
CORTEZ         CLEAR     67  45  45 NE8       30.15S
PAGE, AZ       PTCLDY    90  39  16 W3        29.95R
GRAND CANYON   PTCLDY    71  39  31 SW3       30.20R
KINGMAN        PTCLDY    88  32  13 S9        29.94S
FLAGSTAFF      CLEAR     70  43  37 CALM      30.24S

$$

REGIONAL REPORTS    NEVADA/IDAHO/WYOMING

CITY           SKY/WX    TMP DP  RH WIND       PRES   REMARKS
LAS VEGAS, NV  PTCLDY   100  27   7 SW9       29.75R HX  93
ELY            MOCLDY    72  43  35 N12       30.14R
ELKO           MOCLDY    79  40  24 S9        30.02R
POCATELLO, ID  MOCLDY    67  60  78 SE7       30.03F
BURLEY         MOCLDY    72  50  45 S6        29.97S
EVANSTON, WY   MOCLDY    54  51  90 SW12      30.22F
ROCK SPRINGS   CLOUDY    55  53  93 SW18      30.15R
KEMMERER       CLOUDY    52  50  93 W16G23    30.19R

$$


USA.gov is the U.S. government's official web portal to all federal, state and local government web resources and services.